{"data":{"norad_id":60374,"epoch":"2026-05-24T21:06:49.370112Z","epoch_age_seconds":88911,"freshness":"FRESH","line1":"1 60374U 24138V   26144.87973808 -.00001610  00000+0 -40104-4 0  9997","line2":"2 60374  53.1619 315.6338 0001443  81.5323 278.5842 15.31716380102295","mean_motion":15.3171638,"eccentricity":0.0001443,"inclination_deg":53.1619,"raan_deg":315.6338,"arg_perigee_deg":81.5323,"mean_anomaly_deg":278.5842,"bstar":-4.0104e-5,"rev_number":10229,"period_min":94.012182594796,"perigee_km":469.70288182852,"apogee_km":471.67945363773,"semimajor_km":6848.8281677331,"source":"CELESTRAK","updated_at":"2026-05-25T13:38:19.242036Z"}}